Wind_Speed
8 8 8 9 10 10 10 10 11 10 11 10 11 11 11 11 10 9 9 9 10 10 10 11 12 12 11 11 11 11 11 11 10 10 9 9 8 8 8 8 8 7 7
7 8 9 9 10 11 11 11 10 10 11 10 10 11 11 11 11 11 11 11 11 10 10 11 11 11 12 12 12 11 11 10 10 9 9 9 9 9 8 8 8 8 7
7 8 9 10 11 11 11 12 11 11 12 11 11 11 11 11 11 11 11 11 11 11 11 11 11 11 12 12 12 11 11 10 9 9 9 9 9 9 8 8 8 7 7
7 8 10 10 11 11 11 12 12 11 12 12 11 11 11 11 12 12 11 11 11 11 11 11 11 11 11 11 11 10 10 10 9 9 9 9 8 8 8 8 8 8 7
8 9 10 10 10 11 11 12 12 12 11 12 12 11 11 12 12 12 12 11 11 11 11 11 11 11 11 11 10 10 9 9 9 9 9 8 8 8 8 8 8 8 8
8 9 10 10 11 11 11 12 12 12 12 11 11 12 11 12 12 12 12 11 11 11 11 11 11 11 11 11 10 10 9 9 9 8 8 8 8 7 8 8 7 7 7
9 10 10 10 11 11 11 11 11 12 12 12 11 11 11 11 11 11 11 11 11 11 11 11 11 11 11 10 9 9 9 9 9 9 8 7 7 7 7 7 7 7 6
10 10 10 10 10 11 11 11 11 11 11 11 11 11 10 11 10 10 11 11 11 11 11 10 10 10 9 9 9 9 9 9 8 8 8 7 7 7 6 6 6 6 6
10 10 9 9 10 10 10 10 10 10 10 10 10 11 10 10 10 10 10 10 11 10 10 10 10 9 9 9 9 8 8 8 8 7 7 7 7 6 6 6 5 5 5
10 10 10 9 9 9 9 9 9 9 9 9 9 9 10 9 9 9 9 9 10 9 9 9 9 9 9 8 8 7 7 7 7 7 7 6 6 5 5 5 4 4 4
11 10 10 9 9 9 8 8 8 8 8 8 8 8 8 8 8 8 8 8 8 8 8 8 8 8 7 7 6 6 6 6 6 6 5 5 4 4 3 3 3 3 3
11 11 10 9 8 8 8 8 7 7 6 6 6 7 7 7 7 8 8 8 7 7 7 7 7 6 6 6 5 5 5 5 5 5 4 4 3 2 2 2 1 1 1
12 11 10 9 9 8 7 7 7 6 6 5 5 5 5 6 6 6 7 6 6 6 6 6 5 5 4 4 4 4 4 3 3 3 2 2 2 1 1 1 1 1 1
13 11 10 10 9 8 8 7 6 6 5 5 4 4 4 4 4 5 5 5 5 5 4 4 3 3 3 3 3 2 2 2 2 1 1 1 1 1 1 1 2 2 3
12 11 11 9 8 8 7 6 5 5 5 4 4 3 3 3 3 3 4 4 3 3 3 2 2 2 2 2 2 1 1 1 1 1 1 2 2 2 2 3 3 3 3
13 11 10 9 8 7 6 6 5 5 5 4 4 3 3 2 2 2 3 3 3 2 2 2 1 1 1 1 1 2 2 2 2 2 2 3 4 4 4 4 4 4 4
13 12 11 10 9 8 7 6 6 5 5 4 4 3 3 2 1 2 2 3 3 2 2 1 0 0 1 1 2 2 2 2 2 3 4 4 5 5 5 5 5 6 6
13 12 11 10 9 8 7 6 6 5 5 4 4 4 3 2 1 1 2 2 3 3 2 2 1 1 2 2 3 3 2 3 4 4 5 4 5 6 6 6 7 7 8
13 12 11 10 9 8 8 6 5 5 4 4 4 3 3 2 1 1 2 2 3 3 3 3 3 3 3 4 4 4 4 5 5 6 7 7 7 7 7 8 8 9 9
12 11 11 10 9 8 7 7 5 5 4 3 3 3 3 2 1 0 1 1 2 3 3 4 4 5 5 5 6 6 6 6 7 7 8 8 8 8 9 9 10 10 10
12 11 11 10 10 9 8 7 6 5 4 3 3 2 2 1 1 1 1 2 3 4 4 5 5 6 6 6 7 8 8 8 9 9 9 10 10 10 11 11 12 11 11
13 12 11 11 11 10 8 7 6 5 4 4 3 3 2 2 2 2 3 3 4 4 5 5 6 6 7 8 9 9 9 9 10 11 11 11 12 12 13 13 13 13 13
13 13 12 12 12 11 10 8 7 6 5 4 4 3 3 3 3 3 4 4 5 5 6 6 7 8 8 8 9 10 10 11 11 11 12 13 13 13 13 14 15 14 14
13 13 13 12 12 11 11 9 8 7 5 5 5 4 4 4 4 4 5 5 6 6 7 7 8 9 9 10 11 11 12 12 12 13 13 13 14 15 15 15 15 15 15
12 12 13 12 12 12 11 10 10 9 7 6 6 5 5 5 5 6 6 6 6 7 7 8 8 9 10 11 12 12 13 14 14 14 14 14 15 15 15 14 14 15 15
11 12 12 13 12 12 11 11 11 10 9 8 7 7 6 6 7 7 6 7 7 8 9 9 9 9 10 11 12 13 14 14 15 16 15 15 16 15 15 15 15 16 16
Wind_Direction
63 66 70 70 69 67 67 69 69 69 66 73 75 76 76 78 82 86 89 95 100 104 105 109 109 111 112 108 108 111 110 113 115 114 113 113 111 107 109 111 110 108 108
62 66 72 72 71 69 67 69 72 71 66 71 74 76 78 81 81 83 89 97 99 101 102 102 104 106 108 107 109 108 108 111 111 110 108 108 109 105 103 106 107 106 106
62 68 74 73 72 71 70 70 72 72 70 73 73 77 78 79 81 84 90 95 100 103 103 100 101 104 105 105 106 106 107 108 109 106 106 107 106 104 103 104 106 105 108
66 70 75 75 74 73 72 71 72 72 71 73 75 77 75 79 83 86 93 96 101 106 104 102 104 105 103 103 103 103 104 107 107 106 104 104 104 104 104 105 105 105 106
71 74 75 76 76 76 73 70 70 71 72 74 76 78 77 77 79 82 85 93 100 105 102 99 100 101 102 104 103 102 102 108 110 107 105 103 103 103 105 105 105 104 105
73 74 75 76 78 76 74 71 68 69 72 75 76 77 78 78 81 82 84 88 94 101 98 96 98 99 102 103 104 103 104 107 109 108 106 104 104 103 105 105 104 104 104
75 78 80 78 78 77 77 75 72 70 71 76 79 79 80 78 80 82 86 88 91 98 101 99 98 102 104 102 100 103 104 105 103 103 102 102 102 102 106 105 105 103 100
74 78 81 80 79 79 79 80 77 73 72 72 76 78 79 79 80 84 88 89 90 95 98 97 96 98 102 101 98 99 102 101 99 99 96 95 98 100 102 102 100 97 94
73 76 79 79 78 79 79 80 79 75 73 73 73 74 78 78 80 85 88 89 90 92 93 95 97 98 99 99 98 96 99 100 99 95 93 92 95 99 100 98 93 91 89
72 74 75 76 78 80 79 78 78 77 74 75 75 77 77 80 84 89 89 91 93 93 94 95 96 95 93 92 92 93 94 95 93 88 87 90 93 98 101 101 95 92 90
70 69 70 75 78 79 79 77 77 77 76 76 77 81 82 84 87 93 93 95 96 95 94 94 94 93 89 87 86 87 89 92 90 88 85 86 89 94 100 102 97 97 95
67 69 69 73 75 74 74 73 75 77 78 75 76 82 88 89 92 99 99 101 101 100 99 97 95 94 90 86 86 86 88 88 86 85 84 80 79 80 82 82 74 70 77
64 67 70 71 71 70 68 67 67 70 76 76 79 84 93 97 98 106 109 108 107 105 102 100 98 98 94 91 92 87 87 85 81 83 77 70 64 56 46 23 6 345 343
61 63 66 68 67 65 62 61 60 60 67 74 81 90 101 108 106 108 116 118 119 118 110 106 102 97 91 88 87 77 74 71 74 75 50 28 4 331 323 313 314 311 312
58 60 61 64 64 62 61 59 58 53 61 66 68 80 99 114 120 121 123 128 131 134 134 122 113 99 82 79 76 55 27 21 18 5 359 338 317 302 307 299 299 303 306
54 55 54 57 59 56 55 56 55 51 55 57 57 60 72 101 135 149 143 150 153 155 158 152 139 110 59 36 12 354 335 339 320 297 305 308 304 297 300 299 298 299 299
53 51 50 51 55 56 53 52 49 50 54 53 54 55 62 73 107 167 176 172 177 174 173 179 221 321 314 312 331 343 342 329 319 303 300 299 298 295 292 290 292 289 292
52 49 49 49 49 49 47 47 46 46 50 53 52 51 57 53 73 166 191 193 197 203 212 222 243 279 297 300 309 314 315 314 311 309 304 296 304 301 293 290 291 294 291
48 46 47 48 45 42 41 43 45 46 46 47 49 50 48 52 77 150 182 190 197 217 231 244 257 265 284 292 301 301 297 298 299 302 300 298 300 303 299 293 291 293 291
42 41 43 43 39 35 36 39 41 45 40 33 34 38 39 47 86 156 184 208 225 237 244 253 262 267 275 282 287 291 289 291 292 296 298 299 296 296 295 292 291 293 291
35 35 34 33 31 31 33 34 34 35 36 34 26 18 23 24 329 255 250 251 251 253 257 261 266 274 285 286 287 289 290 291 288 288 292 294 291 291 290 291 291 292 291
31 31 30 29 27 28 29 30 27 22 15 12 4 353 354 333 312 291 270 265 268 270 268 266 266 278 283 284 286 288 293 294 295 292 289 290 288 287 286 283 283 286 288
32 31 30 27 25 24 24 23 20 15 5 355 348 335 313 308 301 291 285 277 277 280 277 276 276 282 287 286 286 287 291 296 297 295 294 290 288 285 284 281 281 283 287
32 32 29 27 24 21 19 20 14 6 358 348 341 332 317 303 295 292 288 284 282 281 281 282 283 282 283 284 285 287 290 293 294 295 293 289 287 286 282 285 284 286 290
28 28 26 24 22 19 15 13 9 2 353 343 335 327 319 310 304 300 291 286 283 283 283 285 288 287 284 284 285 286 288 291 292 293 291 288 288 288 284 284 284 286 288
23 23 20 18 17 15 13 12 9 3 357 348 336 324 316 311 304 299 294 288 289 292 289 288 290 291 290 287 286 286 287 289 288 289 290 288 286 285 286 286 285 284 285
Height
5873 5872 5872 5871 5870 5870 5869 5869 5869 5869 5869 5869 5869 5869 5869 5869 5870 5870 5870 5869 5870 5871 5872 5872 5873 5874 5875 5876 5877 5878 5879 5880 5881 5882 5883 5883 5884 5884 5885 5886 5886 5886 5887
5875 5873 5873 5872 5871 5871 5870 5870 5870 5871 5871 5870 5870 5870 5871 5871 5872 5872 5871 5872 5873 5874 5874 5874 5875 5876 5877 5878 5879 5880 5881 5882 5883 5884 5884 5885 5885 5886 5886 5887 5887 5888 5888
5876 5875 5874 5873 5873 5872 5872 5872 5872 5872 5872 5872 5872 5872 5873 5873 5873 5874 5874 5874 5875 5876 5876 5877 5877 5878 5879 5880 5881 5882 5883 5884 5884 5885 5886 5886 5886 5887 5887 5888 5889 5889 5889
5877 5876 5875 5875 5874 5874 5874 5874 5874 5874 5874 5873 5873 5874 5875 5874 5875 5876 5876 5876 5877 5878 5878 5879 5879 5880 5881 5882 5883 5884 5885 5885 5886 5887 5887 5888 5888 5888 5889 5889 5890 5890 5890
5878 5877 5877 5876 5876 5876 5876 5875 5875 5876 5876 5875 5875 5876 5877 5876 5877 5877 5878 5879 5879 5880 5881 5881 5882 5882 5883 5884 5885 5885 5886 5887 5887 5888 5888 5889 5889 5890 5890 5891 5891 5891 5891
5879 5878 5878 5878 5877 5877 5877 5877 5877 5877 5877 5878 5878 5878 5879 5879 5879 5880 5880 5881 5881 5881 5882 5883 5884 5884 5885 5886 5887 5887 5888 5888 5889 5889 5890 5890 5891 5891 5891 5892 5892 5892 5892
5881 5880 5879 5879 5879 5879 5879 5879 5879 5879 5879 5880 5880 5880 5881 5881 5881 5882 5882 5882 5883 5883 5884 5885 5886 5886 5887 5888 5888 5888 5889 5890 5890 5891 5891 5892 5892 5892 5893 5893 5893 5893 5893
5882 5881 5881 5881 5881 5880 5881 5881 5881 5881 5882 5882 5882 5883 5883 5883 5884 5884 5884 5885 5885 5885 5886 5887 5887 5888 5889 5889 5890 5890 5891 5891 5892 5892 5892 5893 5893 5894 5894 5894 5894 5894 5894
5884 5883 5883 5882 5882 5882 5882 5883 5883 5883 5884 5884 5884 5884 5885 5885 5886 5886 5887 5887 5887 5888 5888 5889 5889 5890 5890 5891 5891 5892 5892 5892 5893 5893 5893 5894 5894 5894 5895 5895 5896 5896 5896
5885 5885 5884 5884 5884 5884 5884 5885 5885 5885 5885 5886 5886 5886 5886 5887 5887 5888 5888 5889 5889 5890 5890 5891 5891 5892 5892 5892 5893 5893 5893 5894 5894 5894 5894 5895 5895 5895 5896 5896 5896 5896 5896
5887 5887 5886 5886 5886 5886 5886 5886 5887 5887 5887 5887 5887 5888 5888 5889 5889 5889 5890 5891 5891 5892 5892 5893 5893 5893 5894 5894 5894 5894 5895 5895 5895 5895 5895 5896 5896 5896 5896 5897 5897 5897 5897
5889 5889 5888 5888 5888 5888 5888 5888 5888 5888 5888 5889 5889 5889 5889 5890 5890 5891 5891 5892 5893 5893 5894 5894 5894 5895 5895 5895 5895 5895 5896 5896 5896 5896 5896 5896 5897 5897 5897 5897 5897 5897 5897
5891 5891 5890 5890 5890 5890 5890 5889 5889 5889 5890 5890 5890 5890 5890 5891 5891 5892 5892 5893 5894 5894 5895 5895 5895 5896 5896 5896 5896 5896 5896 5896 5897 5897 5897 5897 5897 5897 5897 5897 5897 5897 5897
5893 5893 5892 5892 5892 5891 5891 5891 5891 5890 5890 5890 5890 5891 5891 5892 5892 5893 5893 5894 5895 5895 5896 5896 5896 5897 5897 5897 5897 5897 5897 5897 5897 5897 5897 5897 5897 5897 5897 5897 5897 5897 5897
5895 5895 5894 5894 5893 5893 5892 5892 5892 5892 5891 5891 5891 5891 5892 5892 5893 5893 5894 5895 5895 5896 5896 5897 5897 5897 5897 5897 5897 5897 5897 5897 5897 5897 5897 5897 5897 5897 5897 5897 5896 5896 5896
5897 5897 5896 5895 5895 5894 5894 5893 5893 5893 5892 5892 5892 5892 5892 5893 5893 5894 5894 5895 5895 5896 5896 5897 5897 5898 5898 5897 5897 5897 5897 5897 5897 5897 5897 5897 5896 5896 5896 5896 5896 5896 5895
5900 5899 5898 5897 5896 5895 5895 5894 5894 5894 5893 5893 5893 5893 5893 5893 5893 5894 5894 5895 5895 5896 5896 5897 5897 5897 5897 5897 5897 5897 5897 5897 5896 5896 5896 5896 5896 5895 5895 5895 5894 5894 5894
5902 5901 5900 5899 5898 5897 5896 5895 5895 5894 5894 5894 5894 5893 5893 5893 5893 5894 5894 5895 5895 5896 5896 5897 5897 5897 5897 5897 5897 5896 5896 5896 5896 5896 5895 5895 5895 5894 5894 5894 5893 5893 5892
5904 5903 5902 5901 5899 5898 5897 5896 5896 5895 5895 5894 5894 5894 5894 5894 5894 5894 5894 5895 5895 5896 5896 5896 5896 5897 5897 5897 5896 5896 5896 5896 5895 5895 5895 5894 5894 5893 5893 5892 5892 5891 5891
5906 5904 5903 5902 5901 5900 5898 5897 5897 5896 5895 5895 5894 5894 5894 5894 5894 5894 5894 5895 5895 5895 5895 5896 5896 5896 5896 5895 5895 5895 5895 5894 5894 5893 5893 5893 5892 5892 5891 5890 5890 5889 5889
5907 5906 5904 5903 5902 5900 5899 5898 5897 5896 5896 5895 5895 5894 5894 5894 5894 5894 5894 5894 5894 5895 5895 5895 5895 5895 5895 5894 5894 5894 5893 5893 5892 5892 5891 5891 5890 5889 5889 5888 5887 5887 5886
5909 5907 5905 5904 5902 5901 5900 5899 5898 5897 5896 5896 5895 5895 5894 5894 5894 5894 5894 5894 5894 5894 5894 5894 5893 5893 5893 5893 5893 5892 5892 5892 5890 5890 5889 5888 5888 5887 5886 5885 5885 5884 5883
5910 5908 5906 5905 5903 5902 5900 5899 5898 5897 5897 5896 5895 5895 5894 5894 5894 5893 5893 5893 5893 5893 5893 5892 5892 5892 5891 5891 5890 5890 5890 5889 5888 5888 5887 5886 5885 5884 5883 5882 5881 5881 5880
5910 5909 5907 5906 5904 5903 5901 5900 5898 5897 5896 5896 5895 5894 5894 5893 5893 5893 5892 5892 5892 5892 5891 5891 5891 5890 5889 5889 5888 5888 5888 5887 5886 5885 5884 5883 5882 5881 5880 5879 5878 5877 5877
5912 5910 5908 5906 5905 5903 5902 5900 5899 5898 5896 5895 5894 5894 5893 5893 5892 5892 5891 5891 5891 5890 5890 5889 5889 5888 5887 5887 5886 5885 5885 5884 5883 5883 5881 5880 5879 5878 5877 5876 5875 5874 5873
5912 5911 5909 5907 5905 5904 5902 5901 5899 5898 5896 5895 5894 5893 5892 5892 5891 5891 5890 5890 5889 5889 5888 5887 5887 5886 5885 5884 5884 5883 5882 5881 5880 5879 5878 5877 5876 5875 5874 5873 5872 5871 5870